This is the latest recevied weather packets stored in our database for station/object N0MPM-4. If no packets are shown the sender has not sent any weather packets the latest 10 day(s).
| Time | Temp. | Humidity | Pressure | Rain* | Wind** | Luminosity | Snow |
|---|---|---|---|---|---|---|---|
| 1778168369 | 10.56° C | 72% | 1014.2 hPa | 0.25 mm | - | - | - |
| 1778168214 | 10.56° C | 72% | 1014 hPa | 0.25 mm | - | - | - |
| 1778168069 | 10.56° C | 72% | 1014 hPa | 0.25 mm | - | - | - |
| 1778167976 | 10° C | 73% | 1014 hPa | 0.25 mm | - | - | - |
| 1778167769 | 10° C | 73% | 1014 hPa | 0.25 mm | - | - | - |
| 1778167469 | 10° C | 74% | 1013.9 hPa | 0.25 mm | - | - | - |
| 1778167169 | 9.44° C | 73% | 1014.1 hPa | 0.25 mm | - | - | - |
| 1778166869 | 9.44° C | 74% | 1014 hPa | 0.25 mm | - | - | - |
| 1778166570 | 9.44° C | 76% | 1014.2 hPa | 0.25 mm | - | - | - |
| 1778166269 | 8.89° C | 77% | 1014.5 hPa | 0.25 mm | - | - | - |
| 1778165969 | 8.89° C | 77% | 1014.6 hPa | 0.25 mm | - | - | - |
| 1778165669 | 8.89° C | 78% | 1014.8 hPa | 0.25 mm | - | - | - |
| 1778165370 | 8.33° C | 76% | 1014.9 hPa | 0.51 mm | - | - | - |
| 1778165069 | 8.33° C | 79% | 1014.9 hPa | 0.25 mm | - | - | - |
| 1778164770 | 7.78° C | 79% | 1014.9 hPa | 0.25 mm | - | - | - |
| 1778164470 | 7.22° C | 79% | 1014.9 hPa | 0.25 mm | - | - | - |
| 1778164170 | 7.22° C | 79% | 1014.4 hPa | 0.25 mm | - | - | - |
| 1778163870 | 7.22° C | 79% | 1014.1 hPa | 0.25 mm | - | - | - |
| 1778163570 | 7.22° C | 78% | 1014 hPa | 0.25 mm | - | - | - |
| 1778163270 | 7.22° C | 77% | 1014.2 hPa | 0.25 mm | - | - | - |
| 1778162970 | 7.22° C | 76% | 1014.6 hPa | 0.25 mm | - | - | - |
| 1778162670 | 7.22° C | 73% | 1014.9 hPa | 0.25 mm | - | - | - |
| 1778162370 | 7.22° C | 71% | 1014.3 hPa | 0.25 mm | - | - | - |
| 1778162070 | 7.78° C | 69% | 1014.8 hPa | 0.25 mm | - | - | - |
| 1778161770 | 7.78° C | 66% | 1015.3 hPa | 0 mm | - | - | - |
* Rain latest hour (hover to see other rain measurements)
** Current wind speed in m/s (hover to see current wind gust speed)